Flag for U.S.A. Weather past 2 weeks in Warminster Township, Pennsylvania, U.S.A.

Now
77 °F

Overcast.


Feels Like: 78 °F
Forecast: 71 / 84 °F
Wind: No wind

Location: Doylestown Airport

Current Time: Sep 1, 2014 at 11:46:39 AM

Latest Report: Sep 1, 2014 at 10:54 AM


Visibility: 10 mi

Pressure: 30.01 "Hg

Humidity: 85%

Dew point: 72 °F

Location of Warminster TownshipLocation

Historic Weather in Warminster Township — Graph

°F

Warminster Township temperature yesterday

Maximum temperature yesterday: 87 °F (at 12:54 PM)
Minimum temperature yesterday: 68 °F (at 1:54 AM)
Average temperature yesterday: 75 °F

Past Weeks' High & Low Weather Summary

 TemperatureHumidityPressure
High88 °F (Aug 27, 4:54 PM)100% (Aug 21, 10:54 PM)30.27 "Hg (Aug 21, 10:54 PM)
Low53 °F (Aug 30, 6:54 AM)39% (Aug 28, 3:54 PM)29.82 "Hg (Aug 18, 6:54 PM)
Average70 °F75%30.03 "Hg
* Reported Aug 17 10:54 AM — Sep 1 10:54 AM, Warminster Township, Weather by CustomWeather, © 2014

Note: Actual official high and low records may vary slightly from our data, if they occured in-between our weather recording intervals... More about our weather records

Advertising

Warminster Township weather history for previous 24 hours

 ConditionsComfort  
Time TempWeatherWind HumidityBarometerVisibility
10:54 AM
Sep 1
77 °FOvercast.No wind85%30.01 "Hg10 mi
9:54 AM74 °FMore clouds than sun.No wind94%30.01 "Hg10 mi
9:04 AM73 °FMostly cloudy.No wind97%30.02 "Hg10 mi
8:54 AM73 °FMostly cloudy.3 mph97%30.01 "Hg10 mi
7:54 AM71 °FLow clouds.3 mph100%30.01 "Hg7 mi
6:54 AM71 °FMostly cloudy.No wind100%30.01 "Hg10 mi
5:54 AM71 °FPassing clouds.No wind100%30.01 "Hg10 mi
4:54 AM71 °FPassing clouds.No wind100%29.99 "Hg10 mi
3:54 AM71 °FPassing clouds.No wind100%29.99 "Hg10 mi
2:54 AM71 °FPassing clouds.No wind100%29.98 "Hg10 mi
1:54 AM72 °FLight rain. Partly cloudy.5 mph100%29.99 "Hg10 mi
12:54 AM72 °FOvercast.5 mph100%30.01 "Hg10 mi
12:03 AM72 °FMostly cloudy.6 mph100%30.02 "Hg10 mi
11:54 PM
Aug 31
72 °FMostly cloudy.6 mph100%30.00 "Hg10 mi
10:54 PM72 °FMostly cloudy.6 mph97%30.01 "Hg10 mi
9:54 PM73 °FPassing clouds.3 mph97%30.01 "Hg10 mi
8:54 PM74 °FLight rain. Passing clouds.3 mph97%30.01 "Hg10 mi
7:54 PM76 °FSunny.5 mph91%29.99 "Hg10 mi
6:54 PM76 °FPassing clouds.3 mph94%29.99 "Hg10 mi
5:54 PM75 °FPartly sunny.3 mph94%29.98 "Hg10 mi
4:54 PM75 °FPassing clouds.5 mph94%29.97 "Hg10 mi
4:01 PM73 °FMostly cloudy.3 mph94%30.02 "Hg10 mi
2:54 PM85 °FBroken clouds.10 mph59%29.97 "Hg10 mi
1:54 PM87 °FScattered clouds.8 mph55%30.00 "Hg10 mi
12:54 PM87 °FScattered clouds.9 mph59%30.02 "Hg10 mi
11:54 AM83 °FBroken clouds.7 mph68%30.04 "Hg10 mi
Weather by CustomWeather, © 2014

See weather overviewHow to use our weather pages